When you browse on this site, cookies collect data to enhance your experience and personalize the content and advertising you see.
Visit our Privacy Policy to learn more. By continuing to use the site, you agree to this use of cookies and data.
  • In France
  • List of Countries
  • For 7 days
  • Water Temperature
  • Weather Map
  • Weather Widgets
  • user-avatar
    Login

    Hourly Weather Hobart

    Today, 22 August, Thursday

    Time Temperature Precipitation Wind Pressure Humidity
    00:00 +2°C° 1.2 mm 7 mps 737 mmHg 89%
    01:00 +1°C° 1.2 mm 8 mps 738 mmHg 88%
    02:00 +1°C° 0.1 mm 8 mps 739 mmHg 87%
    03:00 0°C° 0.1 mm 8 mps 740 mmHg 85%
    04:00 +1°C° 0 mm 6 mps 741 mmHg 85%
    05:00 0°C° 0.1 mm 7 mps 742 mmHg 86%
    06:00 0°C° 0.1 mm 7 mps 743 mmHg 86%
    07:00 0°C° 0.1 mm 7 mps 744 mmHg 87%
    08:00 +3°C° 0.1 mm 7 mps 745 mmHg 80%
    09:00 +4°C° 0.1 mm 7 mps 746 mmHg 73%
    10:00 +5°C° 0 mm 8 mps 748 mmHg 67%
    11:00 +6°C° 0 mm 7 mps 748 mmHg 62%
    12:00 +6°C° 0 mm 7 mps 748 mmHg 57%
    13:00 +8°C° 0 mm 7 mps 748 mmHg 52%
    14:00 +8°C° 0 mm 6 mps 749 mmHg 54%
    15:00 +7°C° 0 mm 5 mps 749 mmHg 56%
    16:00 +7°C° 0 mm 4 mps 750 mmHg 59%
    17:00 +6°C° 0 mm 4 mps 750 mmHg 66%
    18:00 +4°C° 0 mm 3 mps 751 mmHg 74%
    19:00 +2°C° 0 mm 3 mps 751 mmHg 81%
    20:00 +3°C° 0 mm 2 mps 751 mmHg 84%
    21:00 +2°C° 0 mm 2 mps 752 mmHg 86%
    22:00 +2°C° 0 mm 2 mps 752 mmHg 89%
    23:00 +1°C° 0 mm 2 mps 752 mmHg 90%

    Tomorrow, 23 August, Friday

    Time Temperature Precipitation Wind Pressure Humidity
    00:00 +1°C° 0 mm 2 mps 751 mmHg 91%
    01:00 +1°C° 0 mm 2 mps 751 mmHg 91%
    02:00 +1°C° 0 mm 2 mps 751 mmHg 92%
    03:00 +1°C° 0 mm 2 mps 750 mmHg 92%
    04:00 +1°C° 0 mm 2 mps 750 mmHg 92%
    05:00 +1°C° 0 mm 2 mps 750 mmHg 92%
    06:00 -1°C° 0 mm 2 mps 750 mmHg 92%
    07:00 -1°C° 0 mm 3 mps 749 mmHg 92%
    08:00 +2°C° 0 mm 3 mps 749 mmHg 82%
    09:00 +4°C° 0 mm 3 mps 749 mmHg 72%
    10:00 +8°C° 0 mm 3 mps 748 mmHg 62%
    11:00 +10°C° 0 mm 3 mps 748 mmHg 60%
    12:00 +11°C° 0 mm 3 mps 747 mmHg 57%
    13:00 +13°C° 0 mm 3 mps 746 mmHg 54%
    14:00 +12°C° 0 mm 3 mps 746 mmHg 57%
    15:00 +12°C° 0 mm 3 mps 745 mmHg 60%
    16:00 +11°C° 0 mm 3 mps 745 mmHg 63%
    17:00 +10°C° 0 mm 3 mps 744 mmHg 68%
    18:00 +8°C° 0 mm 4 mps 744 mmHg 74%
    19:00 +6°C° 0 mm 4 mps 744 mmHg 80%
    20:00 +7°C° 0 mm 3 mps 744 mmHg 82%
    21:00 +5°C° 0 mm 3 mps 744 mmHg 83%
    22:00 +5°C° 0 mm 3 mps 743 mmHg 85%
    23:00 +5°C° 0 mm 3 mps 743 mmHg 83%

    Day after tomorrow, 24 August, Saturday

    Time Temperature Precipitation Wind Pressure Humidity
    00:00 +6°C° 0 mm 4 mps 742 mmHg 81%
    01:00 +6°C° 0 mm 4 mps 742 mmHg 79%
    02:00 +6°C° 0 mm 4 mps 741 mmHg 80%
    03:00 +6°C° 0 mm 4 mps 741 mmHg 81%
    04:00 +5°C° 0 mm 4 mps 740 mmHg 82%
    05:00 +5°C° 0 mm 3 mps 740 mmHg 83%
    06:00 +5°C° 0 mm 3 mps 739 mmHg 83%
    07:00 +7°C° 0 mm 3 mps 739 mmHg 84%
    08:00 +8°C° 0 mm 4 mps 739 mmHg 74%
    09:00 +10°C° 0 mm 6 mps 739 mmHg 64%
    10:00 +14°C° 0 mm 7 mps 739 mmHg 54%
    11:00 +14°C° 0 mm 7 mps 738 mmHg 54%
    12:00 +14°C° 0 mm 6 mps 738 mmHg 54%
    13:00 +15°C° 0 mm 6 mps 738 mmHg 54%
    14:00 +13°C° 0.6 mm 5 mps 738 mmHg 65%
    15:00 +10°C° 0.6 mm 5 mps 737 mmHg 76%
    16:00 +8°C° 0.6 mm 4 mps 737 mmHg 88%
    17:00 +7°C° 1.6 mm 4 mps 738 mmHg 90%
    18:00 +6°C° 1.6 mm 4 mps 739 mmHg 92%
    19:00 +5°C° 1.6 mm 4 mps 740 mmHg 94%
    20:00 +4°C° 0.1 mm 4 mps 740 mmHg 93%
    21:00 +3°C° 0.1 mm 4 mps 741 mmHg 93%
    22:00 +3°C° 0.1 mm 3 mps 742 mmHg 92%
    23:00 +2°C° 0 mm 3 mps 742 mmHg 92%

    25 August, Sunday

    Time Temperature Precipitation Wind Pressure Humidity
    00:00 +2°C° 0 mm 3 mps 742 mmHg 92%
    01:00 +1°C° 0 mm 3 mps 743 mmHg 92%
    02:00 +1°C° 0 mm 3 mps 743 mmHg 92%
    03:00 +1°C° 0 mm 3 mps 743 mmHg 92%
    04:00 +1°C° 0 mm 3 mps 744 mmHg 92%
    05:00 +1°C° 0 mm 3 mps 744 mmHg 92%
    06:00 +1°C° 0 mm 3 mps 745 mmHg 92%
    07:00 +1°C° 0 mm 3 mps 745 mmHg 92%
    08:00 +2°C° 0 mm 3 mps 746 mmHg 90%
    09:00 +3°C° 0 mm 3 mps 746 mmHg 87%
    10:00 +4°C° 0 mm 3 mps 746 mmHg 84%
    11:00 +7°C° 0 mm 3 mps 746 mmHg 74%
    12:00 +7°C° 0 mm 4 mps 746 mmHg 65%
    13:00 +10°C° 0 mm 4 mps 746 mmHg 55%
    14:00 +8°C° 0 mm 4 mps 746 mmHg 62%
    15:00 +8°C° 0 mm 4 mps 746 mmHg 68%
    16:00 +7°C° 0 mm 4 mps 746 mmHg 75%
    17:00 +6°C° 0.1 mm 4 mps 747 mmHg 80%
    18:00 +5°C° 0.1 mm 4 mps 747 mmHg 85%
    19:00 +4°C° 0.1 mm 3 mps 748 mmHg 91%
    20:00 +4°C° 0 mm 3 mps 748 mmHg 90%
    21:00 +4°C° 0 mm 3 mps 749 mmHg 90%
    22:00 +4°C° 0 mm 2 mps 749 mmHg 89%
    23:00 +4°C° 0 mm 2 mps 749 mmHg 90%

    26 August, Monday

    Time Temperature Precipitation Wind Pressure Humidity
    00:00 +4°C° 0 mm 2 mps 750 mmHg 91%
    01:00 +3°C° 0 mm 2 mps 750 mmHg 92%
    02:00 +3°C° 0 mm 2 mps 750 mmHg 92%
    03:00 +3°C° 0 mm 2 mps 750 mmHg 91%
    04:00 +4°C° 0 mm 2 mps 750 mmHg 91%
    05:00 +4°C° 0 mm 2 mps 750 mmHg 92%
    06:00 +4°C° 0 mm 2 mps 750 mmHg 93%
    07:00 +4°C° 0 mm 2 mps 751 mmHg 94%
    08:00 +5°C° 0.1 mm 2 mps 751 mmHg 90%
    09:00 +6°C° 0.1 mm 2 mps 751 mmHg 87%
    10:00 +8°C° 0.1 mm 3 mps 751 mmHg 84%
    11:00 +9°C° 0 mm 3 mps 750 mmHg 79%
    12:00 +10°C° 0 mm 3 mps 750 mmHg 73%
    13:00 +12°C° 0 mm 3 mps 750 mmHg 68%
    14:00 +12°C° 0 mm 4 mps 750 mmHg 67%
    15:00 +11°C° 0 mm 4 mps 749 mmHg 67%
    16:00 +11°C° 0 mm 4 mps 749 mmHg 67%
    17:00 +10°C° 0 mm 3 mps 750 mmHg 73%
    18:00 +9°C° 0 mm 3 mps 750 mmHg 80%
    19:00 +7°C° 0 mm 3 mps 750 mmHg 86%
    20:00 +7°C° 0 mm 3 mps 750 mmHg 87%
    21:00 +7°C° 0 mm 3 mps 750 mmHg 88%
    22:00 +7°C° 0 mm 3 mps 750 mmHg 89%
    23:00 +7°C° 0 mm 3 mps 750 mmHg 89%

    27 August, Tuesday

    Time Temperature Precipitation Wind Pressure Humidity
    00:00 +7°C° 0 mm 3 mps 750 mmHg 89%
    01:00 +7°C° 0 mm 3 mps 750 mmHg 89%
    02:00 +7°C° 0 mm 3 mps 750 mmHg 88%
    03:00 +7°C° 0 mm 4 mps 749 mmHg 87%
    04:00 +7°C° 0 mm 4 mps 749 mmHg 85%
    05:00 +7°C° 0 mm 4 mps 749 mmHg 85%
    06:00 +6°C° 0 mm 4 mps 749 mmHg 85%
    07:00 +6°C° 0 mm 4 mps 750 mmHg 85%
    08:00 +7°C° 0 mm 4 mps 749 mmHg 79%
    09:00 +8°C° 0 mm 5 mps 749 mmHg 74%
    10:00 +9°C° 0 mm 5 mps 749 mmHg 68%
    11:00 +10°C° 0 mm 5 mps 749 mmHg 66%
    12:00 +10°C° 0 mm 5 mps 748 mmHg 64%
    13:00 +10°C° 0 mm 5 mps 748 mmHg 62%
    14:00 +10°C° 0 mm 5 mps 748 mmHg 64%
    15:00 +11°C° 0 mm 4 mps 748 mmHg 66%
    16:00 +11°C° 0 mm 4 mps 747 mmHg 67%
    17:00 +10°C° 0 mm 4 mps 748 mmHg 72%
    18:00 +9°C° 0 mm 3 mps 748 mmHg 76%
    19:00 +9°C° 0 mm 3 mps 748 mmHg 80%
    20:00 +9°C° 0 mm 3 mps 748 mmHg 82%
    21:00 +9°C° 0 mm 3 mps 748 mmHg 84%
    22:00 +8°C° 0 mm 3 mps 748 mmHg 85%
    23:00 +8°C° 0 mm 3 mps 748 mmHg 85%
    Show more